• In Russia
  • List of Countries
  • For 7 days
  • Water Temperature
  • Satellite Maps
  • Weather Map
  • Weather Widgets
  • user-avatar
    Login

    Hourly Weather Nagykallo

    Today, 23 September, Saturday

    Time Temperature Precipitation Wind Pressure Humidity
    00:00 +12°C° 0.2 mm 3 mps 751 mmHg 77%
    01:00 +13°C° 0 mm 2 mps 750 mmHg 81%
    02:00 +13°C° 1.3 mm 2 mps 750 mmHg 84%
    03:00 +11°C° 1.3 mm 3 mps 750 mmHg 86%
    04:00 +11°C° 1.3 mm 3 mps 750 mmHg 88%
    05:00 +11°C° 1.9 mm 3 mps 750 mmHg 89%
    06:00 +11°C° 1.9 mm 3 mps 750 mmHg 89%
    07:00 +11°C° 1.9 mm 3 mps 750 mmHg 90%
    08:00 +11°C° 0.9 mm 3 mps 750 mmHg 90%
    09:00 +11°C° 0.9 mm 3 mps 751 mmHg 89%
    10:00 +11°C° 0.9 mm 3 mps 751 mmHg 89%
    11:00 +12°C° 0.3 mm 2 mps 751 mmHg 88%
    12:00 +13°C° 0.3 mm 2 mps 751 mmHg 86%
    13:00 +13°C° 0.3 mm 2 mps 751 mmHg 84%
    14:00 +13°C° 0.1 mm 2 mps 752 mmHg 85%
    15:00 +13°C° 0.1 mm 2 mps 752 mmHg 85%
    16:00 +14°C° 0.1 mm 2 mps 752 mmHg 85%
    17:00 +13°C° 0 mm 2 mps 752 mmHg 88%
    18:00 +12°C° 0 mm 2 mps 752 mmHg 91%
    19:00 +10°C° 0 mm 2 mps 753 mmHg 93%
    20:00 +10°C° 0 mm 2 mps 753 mmHg 94%
    21:00 +10°C° 0 mm 2 mps 753 mmHg 94%
    22:00 +9°C° 0 mm 2 mps 753 mmHg 95%
    23:00 +9°C° 0 mm 2 mps 753 mmHg 94%

    Tomorrow, 24 September, Sunday

    Time Temperature Precipitation Wind Pressure Humidity
    00:00 +9°C° 0 mm 2 mps 753 mmHg 94%
    01:00 +9°C° 0 mm 2 mps 753 mmHg 94%
    02:00 +9°C° 0 mm 1 mps 753 mmHg 94%
    03:00 +9°C° 0 mm 1 mps 753 mmHg 94%
    04:00 +9°C° 0 mm 1 mps 753 mmHg 94%
    05:00 +10°C° 0 mm 1 mps 754 mmHg 92%
    06:00 +10°C° 0 mm 1 mps 754 mmHg 90%
    07:00 +11°C° 0 mm 1 mps 754 mmHg 88%
    08:00 +13°C° 0 mm 1 mps 754 mmHg 82%
    09:00 +14°C° 0 mm 1 mps 754 mmHg 76%
    10:00 +16°C° 0 mm 1 mps 754 mmHg 69%
    11:00 +18°C° 0 mm 1 mps 754 mmHg 65%
    12:00 +19°C° 0 mm 1 mps 754 mmHg 61%
    13:00 +19°C° 0 mm 1 mps 754 mmHg 57%
    14:00 +19°C° 0 mm 1 mps 754 mmHg 57%
    15:00 +19°C° 0 mm 1 mps 754 mmHg 57%
    16:00 +17°C° 0 mm 0 mps 754 mmHg 57%
    17:00 +16°C° 0 mm 0 mps 754 mmHg 62%
    18:00 +15°C° 0 mm 0 mps 754 mmHg 67%
    19:00 +13°C° 0 mm 0 mps 754 mmHg 72%
    20:00 +13°C° 0 mm 0 mps 754 mmHg 74%
    21:00 +12°C° 0 mm 0 mps 755 mmHg 77%
    22:00 +13°C° 0 mm 1 mps 755 mmHg 79%
    23:00 +12°C° 0 mm 1 mps 755 mmHg 81%

    Day after tomorrow, 25 September, Monday

    Time Temperature Precipitation Wind Pressure Humidity
    00:00 +12°C° 0 mm 1 mps 755 mmHg 83%
    01:00 +12°C° 0 mm 1 mps 755 mmHg 84%
    02:00 +11°C° 0 mm 1 mps 755 mmHg 86%
    03:00 +11°C° 0 mm 1 mps 755 mmHg 87%
    04:00 +10°C° 0 mm 2 mps 755 mmHg 89%
    05:00 +10°C° 0 mm 2 mps 755 mmHg 87%
    06:00 +12°C° 0 mm 2 mps 755 mmHg 85%
    07:00 +13°C° 0 mm 2 mps 755 mmHg 82%
    08:00 +15°C° 0 mm 2 mps 755 mmHg 74%
    09:00 +17°C° 0 mm 3 mps 755 mmHg 66%
    10:00 +19°C° 0 mm 3 mps 755 mmHg 58%
    11:00 +20°C° 0 mm 3 mps 755 mmHg 54%
    12:00 +21°C° 0 mm 3 mps 755 mmHg 50%
    13:00 +22°C° 0 mm 3 mps 755 mmHg 47%
    14:00 +23°C° 0 mm 2 mps 755 mmHg 49%
    15:00 +21°C° 0 mm 2 mps 755 mmHg 51%
    16:00 +21°C° 0 mm 2 mps 755 mmHg 52%
    17:00 +20°C° 0 mm 2 mps 755 mmHg 57%
    18:00 +18°C° 0 mm 2 mps 755 mmHg 61%
    19:00 +16°C° 0 mm 2 mps 756 mmHg 66%
    20:00 +16°C° 0 mm 2 mps 756 mmHg 67%
    21:00 +14°C° 0 mm 3 mps 756 mmHg 68%
    22:00 +14°C° 0 mm 3 mps 756 mmHg 70%
    23:00 +14°C° 0 mm 3 mps 756 mmHg 70%

    26 September, Tuesday

    Time Temperature Precipitation Wind Pressure Humidity
    00:00 +13°C° 0 mm 3 mps 756 mmHg 71%
    01:00 +13°C° 0 mm 3 mps 756 mmHg 72%
    02:00 +13°C° 0 mm 3 mps 756 mmHg 72%
    03:00 +12°C° 0 mm 3 mps 756 mmHg 73%
    04:00 +12°C° 0 mm 3 mps 756 mmHg 74%
    05:00 +13°C° 0 mm 3 mps 756 mmHg 72%
    06:00 +13°C° 0 mm 3 mps 756 mmHg 70%
    07:00 +14°C° 0 mm 3 mps 756 mmHg 69%
    08:00 +17°C° 0 mm 3 mps 756 mmHg 62%
    09:00 +20°C° 0 mm 4 mps 756 mmHg 55%
    10:00 +22°C° 0 mm 4 mps 756 mmHg 49%
    11:00 +23°C° 0 mm 4 mps 755 mmHg 46%
    12:00 +25°C° 0 mm 4 mps 755 mmHg 43%
    13:00 +26°C° 0 mm 4 mps 755 mmHg 40%
    14:00 +25°C° 0 mm 3 mps 755 mmHg 43%
    15:00 +25°C° 0 mm 3 mps 755 mmHg 45%
    16:00 +25°C° 0 mm 2 mps 755 mmHg 48%
    17:00 +23°C° 0 mm 2 mps 755 mmHg 51%
    18:00 +20°C° 0 mm 2 mps 755 mmHg 54%
    19:00 +19°C° 0 mm 2 mps 755 mmHg 57%
    20:00 +18°C° 0 mm 3 mps 756 mmHg 58%
    21:00 +18°C° 0 mm 3 mps 756 mmHg 59%
    22:00 +17°C° 0 mm 3 mps 756 mmHg 61%
    23:00 +17°C° 0 mm 3 mps 756 mmHg 61%

    27 September, Wednesday

    Time Temperature Precipitation Wind Pressure Humidity
    00:00 +16°C° 0 mm 3 mps 756 mmHg 60%
    01:00 +14°C° 0 mm 3 mps 756 mmHg 60%
    02:00 +14°C° 0 mm 3 mps 756 mmHg 61%
    03:00 +14°C° 0 mm 3 mps 756 mmHg 61%
    04:00 +13°C° 0 mm 3 mps 756 mmHg 61%
    05:00 +13°C° 0 mm 3 mps 757 mmHg 60%
    06:00 +14°C° 0 mm 3 mps 757 mmHg 60%
    07:00 +14°C° 0 mm 3 mps 757 mmHg 59%
    08:00 +17°C° 0 mm 3 mps 757 mmHg 53%
    09:00 +19°C° 0 mm 3 mps 757 mmHg 48%
    10:00 +20°C° 0 mm 3 mps 757 mmHg 42%
    11:00 +21°C° 0 mm 3 mps 757 mmHg 38%
    12:00 +22°C° 0 mm 3 mps 757 mmHg 35%
    13:00 +24°C° 0 mm 3 mps 757 mmHg 32%
    14:00 +24°C° 0 mm 3 mps 757 mmHg 35%
    15:00 +23°C° 0 mm 2 mps 757 mmHg 37%
    16:00 +23°C° 0 mm 2 mps 757 mmHg 40%
    17:00 +20°C° 0 mm 2 mps 757 mmHg 43%
    18:00 +18°C° 0 mm 2 mps 757 mmHg 45%
    19:00 +17°C° 0 mm 2 mps 757 mmHg 48%
    20:00 +16°C° 0 mm 2 mps 758 mmHg 50%
    21:00 +15°C° 0 mm 2 mps 758 mmHg 52%
    22:00 +14°C° 0 mm 3 mps 758 mmHg 53%
    23:00 +13°C° 0 mm 3 mps 758 mmHg 55%

    28 September, Thursday

    Time Temperature Precipitation Wind Pressure Humidity
    00:00 +13°C° 0 mm 3 mps 758 mmHg 56%
    01:00 +13°C° 0 mm 3 mps 758 mmHg 58%
    02:00 +12°C° 0 mm 3 mps 758 mmHg 59%
    03:00 +12°C° 0 mm 3 mps 758 mmHg 60%
    04:00 +11°C° 0 mm 3 mps 758 mmHg 61%
    05:00 +13°C° 0 mm 2 mps 758 mmHg 61%
    06:00 +13°C° 0 mm 2 mps 759 mmHg 60%
    07:00 +14°C° 0 mm 2 mps 759 mmHg 60%
    08:00 +16°C° 0 mm 2 mps 759 mmHg 55%
    09:00 +18°C° 0 mm 3 mps 759 mmHg 50%
    10:00 +19°C° 0 mm 3 mps 759 mmHg 44%
    11:00 +20°C° 0 mm 3 mps 759 mmHg 42%
    12:00 +21°C° 0 mm 3 mps 758 mmHg 40%
    13:00 +22°C° 0 mm 3 mps 758 mmHg 38%
    14:00 +22°C° 0 mm 3 mps 758 mmHg 40%
    15:00 +21°C° 0 mm 2 mps 758 mmHg 43%
    16:00 +21°C° 0 mm 2 mps 758 mmHg 45%
    17:00 +19°C° 0 mm 2 mps 758 mmHg 49%
    18:00 +18°C° 0 mm 2 mps 758 mmHg 52%
    19:00 +16°C° 0 mm 2 mps 758 mmHg 56%
    20:00 +15°C° 0 mm 2 mps 759 mmHg 58%
    21:00 +15°C° 0 mm 2 mps 759 mmHg 60%
    22:00 +14°C° 0 mm 2 mps 759 mmHg 62%
    23:00 +14°C° 0 mm 2 mps 759 mmHg 63%
    Show more